Location: Radomski Observatory
(40.2854°N, 79.5145°W)
Time: 06:47:40
(UTC-05:00)

Daily predictions for brighter satellites

Satellite Brightness Start Highest point End
(mag) Time Altitude Azimuth Time Altitude Azimuth Time Altitude Azimuth
GPS 2-04 Rocket1 3.8 18:31:21 10° SW 18:35:14 36° SSE 18:39:13 10° E
Cosmos 2322 Rocket 4.0 18:30:35 10° NW 18:35:44 38° WSW 18:40:52 10° S
Meteor 1-28 Rocket 3.2 18:32:16 10° NNE 18:36:06 86° ESE 18:39:55 10° SSW
Cosmos 1570 Rocket 4.4 18:31:09 10° N 18:36:07 42° ENE 18:41:03 10° SE
Cosmos 2181 Rocket 4.1 18:30:19 10° N 18:36:31 59° E 18:42:46 10° SSE
Cosmos 1633 2.5 18:34:45 10° S 18:38:24 70° E 18:42:05 10° NNE
USA 229 DEB 4.3 18:32:23 10° NNW 18:39:05 41° NE 18:45:51 10° ESE
USA 229 4.3 18:32:30 10° NNW 18:39:11 41° NE 18:45:56 10° ESE
Genesis I 3.3 18:36:02 10° NNW 18:39:55 54° NE 18:43:45 10° SE
Cosmos 1238 Rocket 2.2 18:37:46 10° N 18:40:40 52° E 18:43:40 10° SSE
Okean 1 Rocket 3.3 18:37:02 10° SSE 18:41:20 47° E 18:45:39 10° NNE
Cosmos 1709 Rocket 4.0 18:37:15 10° S 18:43:28 85° E 18:49:38 10° N
NOSS 8 (H) 4.4 18:41:39 10° SSW 18:45:01 73° ESE 18:48:34 10° NE
Cosmos 2074 Rocket 4.5 18:39:25 10° SSE 18:45:03 37° E 18:50:44 10° NNE
METEOR-M 4.1 18:40:10 10° SSE 18:45:27 68° ENE 18:50:46 10° N
ASTRO F (AKARI) 4.4 18:43:09 10° NNE 18:46:39 87° ESE 18:49:57 10° SSW
Cosmos 1025 Rocket 3.8 18:44:28 10° NNE 18:48:22 30° ENE 18:52:15 10° SE
OTV 4 2.5 18:47:30 10° SSW 18:49:31 17° SSE 18:51:22 11° ESE
Spot 2 Rocket 4.3 18:46:16 10° SE 18:50:38 30° ENE 18:55:02 10° N
Cosmos 2184 Rocket 4.4 18:45:37 10° SSE 18:51:24 40° E 18:57:09 10° NNE
Cosmos 2322 3.9 18:51:48 10° NNW 18:57:33 78° WSW 19:03:13 10° SSE
Hubble Space Telescope 3.1 18:58:56 10° SSW 19:00:54 13° S 19:02:51 10° SE
BREEZE-M DEB (TANK) 2.6 18:59:13 10° SW 19:03:46 55° SSE 19:05:20 20° ENE
Cosmos 1850 Rocket 4.0 19:00:29 10° SSW 19:05:47 88° ESE 19:11:10 10° NNE
Cosmos 2208 Rocket 4.0 19:01:46 10° NNW 19:07:14 73° ENE 19:12:36 10° SSE
CZ-3C R/B 3.9 19:04:27 10° SW 19:07:30 12° SSW 19:09:36 10° S
Meteor 1-19 Rocket 4.4 19:02:10 10° NNW 19:07:53 80° W 19:13:40 10° S
SJ-6B 2.8 19:04:56 10° SSE 19:08:54 88° E 19:12:50 10° NNW
NOSS 0 Rocket 4.5 19:05:01 10° N 19:10:38 36° ENE 19:15:08 15° ESE
Cosmos 405 Rocket 3.7 19:07:41 10° NNE 19:11:11 27° ENE 19:13:12 18° ESE
Cosmos 2237 Rocket 3.2 19:07:17 10° N 19:12:01 26° NE 19:14:36 19° E
ALOS 2.2 19:07:56 10° SSE 19:12:33 65° ENE 19:17:11 10° N
HJ-1C 3.3 19:10:27 10° SSE 19:13:46 61° ENE 19:17:06 10° N
Cosmos 2297 Rocket 3.4 19:10:03 10° SE 19:13:55 19° E 19:14:23 19° E
Cosmos 2333 4.2 19:08:48 10° NNW 19:14:32 68° ENE 19:20:16 10° SSE
H-2A R/B 3.1 19:12:10 10° SE 19:15:40 40° ENE 19:19:13 10° N
Cosmos 2237 4.3 19:10:28 10° NNW 19:16:13 82° WSW 19:21:55 10° SSE
COSMOS 2428 2.6 19:10:40 10° NNW 19:16:22 80° ENE 19:22:04 10° SSE
CZ-2D R/B 4.0 19:14:14 18° ESE 19:16:24 31° ENE 19:19:49 10° N
Okean 1-7 Rocket 3.6 19:14:40 10° N 19:19:13 89° E 19:23:41 10° S
Meteor 2-4 Rocket 3.7 19:16:24 10° N 19:21:56 85° W 19:27:18 10° S
Gbstr 26 Del rocket 4.0 19:19:20 10° W 19:22:50 33° NNW 19:25:40 14° NE
Cosmos 2285 Rocket 4.0 19:16:51 10° NNW 19:23:15 64° ENE 19:29:36 10° SSE
Cosmos 2219 Rocket 2.3 19:19:04 10° NNW 19:24:32 52° ENE 19:28:57 16° SE
Cosmos 2360 Rocket 3.6 19:19:18 10° NW 19:24:33 40° WSW 19:29:46 10° S
Meteor 1-23 Rocket 4.2 19:21:52 10° N 19:27:41 87° E 19:33:25 10° S
Okean 2 3.4 19:24:43 10° N 19:28:50 56° E 19:32:56 10° SSE
Cosmos 2219 3.6 19:26:24 10° SSW 19:32:08 68° WNW 19:37:52 10° NNE
Atlas Centaur 2 4.1 19:29:18 10° SSW 19:33:46 17° SSE 19:35:47 15° SE
Cosmos 2227 Rocket 2.6 19:28:56 10° S 19:34:06 38° ESE 19:38:28 14° NE
Helios 1A 3.3 19:33:28 33° ESE 19:34:36 41° ENE 19:38:32 10° N
Helios 1B rocket 2.8 19:31:43 10° NNE 19:35:38 39° E 19:39:32 10° S
Abrixas rocket 3.1 19:32:44 10° W 19:35:59 45° NNW 19:37:11 30° NNE
Cosmos 1536 4.2 19:35:44 10° SSW 19:39:29 40° WNW 19:43:16 10° N
SAR-Lupe-1 4.2 19:44:47 51° NE 19:44:47 51° NE 19:47:57 10° N
SAR-Lupe-4 3.4 19:44:54 60° ESE 19:45:17 66° ENE 19:48:51 10° N
Cosmos 1455 Rocket 3.2 19:42:03 10° SSE 19:46:16 49° E 19:50:29 10° NNE
Cosmos 841 Rocket 4.4 19:42:26 10° N 19:46:24 28° NE 19:46:24 28° NE
SL-16 R/B 3.5 19:43:21 10° N 19:47:23 22° NE 19:47:23 22° NE
Cosmos 1763 Rocket 3.8 19:52:45 10° N 19:57:29 43° ENE 19:57:29 43° ENE
Resurs 01 Rocket 2.4 19:55:01 10° S 19:59:18 52° W 20:03:37 10° NNW
ATLAS 2A CENTAUR R/B 4.5 20:06:43 10° SSW 20:09:14 13° SSE 20:10:06 13° SSE
Cosmos 2333 Rocket 2.2 20:04:45 10° NNW 20:10:32 84° WSW 20:12:59 36° SSE
Cosmos 1980 3.5 20:05:53 10° NNW 20:11:34 81° ENE 20:12:50 55° SE
GEOS 3 Rocket 3.8 20:08:20 20° NNE 20:12:01 73° NW 20:17:17 10° SW
GPS 2-04 Rocket1 3.7 20:10:42 10° WSW 20:14:12 41° SSW 20:14:12 41° SSW
OTV 4 3.6 20:22:20 10° WSW 20:22:38 12° WSW 20:22:38 12° WSW
Cosmos 1295 Rocket 4.3 20:33:35 80° ESE 20:33:39 80° E 20:39:58 10° N
Cosmos 2082 3.8 20:30:35 10° SSW 20:36:18 74° WNW 20:37:59 47° N
Hubble Space Telescope 3.6 20:38:53 10° SW 20:38:56 10° SW 20:38:56 10° SW
NOSS 3-1 (A) 3.9 20:35:27 10° NNW 20:43:09 79° NE 20:44:06 70° ESE
Envisat 3.7 20:47:02 51° NW 20:47:02 51° NW 20:50:56 10° NNW
ATLAS 2AS CENTAUR R/B 4.0 20:41:32 10° NNW 20:48:06 32° NNE 20:48:06 32° NNE
Cosmos 2237 Rocket 3.0 20:50:51 10° NW 20:56:17 47° WSW 20:56:29 47° WSW
Cosmos 2297 Rocket 2.9 20:51:53 10° SW 20:56:25 50° WSW 20:56:25 50° WSW
NOSS 3-1 (C) 4.2 20:53:19 10° NW 21:00:57 68° WSW 21:02:16 59° SSW
Cosmos 2219 Rocket 4.3 21:03:57 10° NW 21:08:03 21° W 21:10:47 15° SW
H-2A R/B 4.4 21:03:50 10° SSW 21:42:31 16° E 22:04:19 10° E
H-2A R/B 4.4 21:03:50 10° SSW 21:42:30 16° E 22:04:19 10° E
H-2A R/B 4.4 21:03:50 10° SSW 21:42:32 16° E 22:04:19 10° E
Cosmos 2227 Rocket 3.8 21:13:14 10° WSW 21:18:11 31° WNW 21:20:36 22° NNW
SL-16 R/B 4.0 21:26:41 10° NNW 21:29:17 27° NW 21:29:17 27° NW
